When you browse on this site, cookies collect data to enhance your experience and personalize the content and advertising you see.
Visit our Privacy Policy to learn more. By continuing to use the site, you agree to this use of cookies and data.
  • In Spain
  • List of Countries
  • For 7 days
  • Water Temperature
  • Satellite Maps
  • Weather Map
  • Weather Widgets
  • user-avatar
    Login

    Hourly Weather Starye Vyselki

    Today, 22 March, Friday

    Time Temperature Precipitation Wind Pressure Humidity
    00:00 -3°C° 0 mm 2 mps 742 mmHg 94%
    01:00 -3°C° 0 mm 2 mps 742 mmHg 93%
    02:00 -3°C° 0 mm 2 mps 742 mmHg 92%
    03:00 -3°C° 0 mm 2 mps 742 mmHg 91%
    04:00 -3°C° 0 mm 2 mps 741 mmHg 91%
    05:00 -4°C° 0 mm 3 mps 741 mmHg 90%
    06:00 -4°C° 0 mm 3 mps 740 mmHg 90%
    07:00 -3°C° 0.1 mm 4 mps 739 mmHg 89%
    08:00 -2°C° 0.1 mm 5 mps 738 mmHg 87%
    09:00 -2°C° 0.1 mm 6 mps 737 mmHg 86%
    10:00 -2°C° 0.9 mm 6 mps 736 mmHg 88%
    11:00 -2°C° 0.9 mm 7 mps 735 mmHg 90%
    12:00 -1°C° 0.9 mm 8 mps 734 mmHg 92%
    13:00 -1°C° 0.9 mm 7 mps 733 mmHg 92%
    14:00 -1°C° 0.9 mm 7 mps 733 mmHg 92%
    15:00 -1°C° 0.9 mm 7 mps 733 mmHg 92%
    16:00 -2°C° 0.5 mm 8 mps 733 mmHg 88%
    17:00 -2°C° 0.5 mm 8 mps 733 mmHg 85%
    18:00 -3°C° 0.5 mm 9 mps 733 mmHg 82%
    19:00 -4°C° 0.2 mm 8 mps 734 mmHg 83%
    20:00 -4°C° 0.2 mm 8 mps 734 mmHg 84%
    21:00 -5°C° 0.2 mm 8 mps 734 mmHg 85%
    22:00 -5°C° 0.1 mm 8 mps 734 mmHg 85%
    23:00 -4°C° 0.1 mm 7 mps 734 mmHg 85%

    Tomorrow, 23 March, Saturday

    Time Temperature Precipitation Wind Pressure Humidity
    00:00 -4°C° 0.1 mm 7 mps 734 mmHg 85%
    01:00 -4°C° 0.1 mm 7 mps 735 mmHg 86%
    02:00 -4°C° 0.1 mm 7 mps 735 mmHg 87%
    03:00 -4°C° 0.1 mm 7 mps 735 mmHg 88%
    04:00 -3°C° 0.1 mm 7 mps 735 mmHg 89%
    05:00 -3°C° 0.1 mm 7 mps 736 mmHg 90%
    06:00 -3°C° 0.1 mm 7 mps 736 mmHg 91%
    07:00 -3°C° 0 mm 7 mps 737 mmHg 91%
    08:00 -3°C° 0 mm 7 mps 739 mmHg 90%
    09:00 -3°C° 0 mm 7 mps 740 mmHg 90%
    10:00 -3°C° 0 mm 7 mps 740 mmHg 89%
    11:00 -3°C° 0 mm 6 mps 741 mmHg 88%
    12:00 -3°C° 0 mm 6 mps 742 mmHg 87%
    13:00 -2°C° 0.1 mm 5 mps 742 mmHg 86%
    14:00 -2°C° 0.1 mm 5 mps 742 mmHg 86%
    15:00 -2°C° 0.1 mm 5 mps 742 mmHg 85%
    16:00 -2°C° 0 mm 4 mps 743 mmHg 86%
    17:00 -1°C° 0 mm 3 mps 743 mmHg 86%
    18:00 -1°C° 0 mm 3 mps 743 mmHg 87%
    19:00 -2°C° 0 mm 2 mps 743 mmHg 88%
    20:00 -2°C° 0 mm 2 mps 743 mmHg 90%
    21:00 -3°C° 0 mm 2 mps 743 mmHg 91%
    22:00 -1°C° 0 mm 1 mps 743 mmHg 91%
    23:00 -1°C° 0 mm 1 mps 743 mmHg 91%

    Day after tomorrow, 24 March, Sunday

    Time Temperature Precipitation Wind Pressure Humidity
    00:00 -2°C° 0 mm 1 mps 743 mmHg 91%
    01:00 -2°C° 0 mm 1 mps 743 mmHg 91%
    02:00 -2°C° 0 mm 1 mps 742 mmHg 90%
    03:00 -2°C° 0 mm 1 mps 742 mmHg 90%
    04:00 -2°C° 0 mm 1 mps 742 mmHg 90%
    05:00 -4°C° 0 mm 2 mps 741 mmHg 90%
    06:00 -5°C° 0 mm 2 mps 741 mmHg 90%
    07:00 -5°C° 0 mm 3 mps 740 mmHg 88%
    08:00 -4°C° 0 mm 3 mps 740 mmHg 86%
    09:00 -3°C° 0 mm 4 mps 740 mmHg 84%
    10:00 -3°C° 0.1 mm 4 mps 739 mmHg 85%
    11:00 -4°C° 0.1 mm 5 mps 739 mmHg 87%
    12:00 -2°C° 0.1 mm 5 mps 738 mmHg 88%
    13:00 -2°C° 0.2 mm 5 mps 738 mmHg 89%
    14:00 -2°C° 0.2 mm 5 mps 737 mmHg 91%
    15:00 -1°C° 0.2 mm 5 mps 737 mmHg 92%
    16:00 -1°C° 0.1 mm 5 mps 736 mmHg 92%
    17:00 -1°C° 0.1 mm 4 mps 736 mmHg 93%
    18:00 -1°C° 0.1 mm 4 mps 736 mmHg 94%
    19:00 -1°C° 0.1 mm 4 mps 736 mmHg 93%
    20:00 -1°C° 0.1 mm 3 mps 736 mmHg 92%
    21:00 -1°C° 0.1 mm 3 mps 736 mmHg 92%
    22:00 -1°C° 0 mm 3 mps 736 mmHg 90%
    23:00 -2°C° 0 mm 3 mps 735 mmHg 89%

    25 March, Monday

    Time Temperature Precipitation Wind Pressure Humidity
    00:00 -2°C° 0 mm 3 mps 735 mmHg 88%
    01:00 -2°C° 0 mm 3 mps 735 mmHg 88%
    02:00 -4°C° 0 mm 3 mps 735 mmHg 88%
    03:00 -5°C° 0 mm 3 mps 735 mmHg 88%
    04:00 -5°C° 0 mm 3 mps 735 mmHg 89%
    05:00 -5°C° 0 mm 3 mps 735 mmHg 90%
    06:00 -5°C° 0 mm 3 mps 735 mmHg 90%
    07:00 -5°C° 0 mm 4 mps 736 mmHg 89%
    08:00 -4°C° 0 mm 4 mps 736 mmHg 87%
    09:00 -4°C° 0 mm 4 mps 736 mmHg 85%
    10:00 -4°C° 0 mm 5 mps 736 mmHg 82%
    11:00 -2°C° 0 mm 5 mps 737 mmHg 78%
    12:00 -2°C° 0 mm 5 mps 737 mmHg 75%
    13:00 -2°C° 0.1 mm 5 mps 737 mmHg 73%
    14:00 -1°C° 0.1 mm 5 mps 737 mmHg 72%
    15:00 -1°C° 0.1 mm 5 mps 737 mmHg 70%
    16:00 -1°C° 0 mm 4 mps 737 mmHg 71%
    17:00 -2°C° 0 mm 4 mps 737 mmHg 71%
    18:00 -1°C° 0 mm 3 mps 737 mmHg 72%
    19:00 -2°C° 0 mm 3 mps 737 mmHg 74%
    20:00 -3°C° 0 mm 2 mps 737 mmHg 76%
    21:00 -3°C° 0 mm 2 mps 738 mmHg 78%
    22:00 -3°C° 0 mm 2 mps 738 mmHg 78%
    23:00 -3°C° 0 mm 2 mps 738 mmHg 79%

    26 March, Tuesday

    Time Temperature Precipitation Wind Pressure Humidity
    00:00 -3°C° 0 mm 2 mps 738 mmHg 79%
    01:00 -4°C° 0 mm 3 mps 738 mmHg 80%
    02:00 -4°C° 0 mm 3 mps 738 mmHg 81%
    03:00 -4°C° 0 mm 3 mps 738 mmHg 82%
    04:00 -4°C° 0 mm 3 mps 738 mmHg 82%
    05:00 -5°C° 0 mm 3 mps 738 mmHg 82%
    06:00 -5°C° 0 mm 3 mps 738 mmHg 82%
    07:00 -4°C° 0 mm 4 mps 738 mmHg 79%
    08:00 -3°C° 0 mm 4 mps 738 mmHg 76%
    09:00 -2°C° 0 mm 5 mps 738 mmHg 73%
    10:00 -1°C° 0 mm 5 mps 738 mmHg 70%
    11:00 0°C° 0 mm 5 mps 738 mmHg 67%
    12:00 0°C° 0 mm 5 mps 738 mmHg 65%
    13:00 +1°C° 0 mm 5 mps 738 mmHg 63%
    14:00 +1°C° 0 mm 5 mps 738 mmHg 61%
    15:00 +2°C° 0 mm 5 mps 738 mmHg 59%
    16:00 +1°C° 0.1 mm 4 mps 738 mmHg 65%
    17:00 +1°C° 0.1 mm 3 mps 738 mmHg 71%
    18:00 +1°C° 0.1 mm 2 mps 738 mmHg 77%
    19:00 +1°C° 0.2 mm 2 mps 738 mmHg 83%
    20:00 -1°C° 0.2 mm 2 mps 738 mmHg 88%
    21:00 -1°C° 0.2 mm 2 mps 738 mmHg 94%
    22:00 -2°C° 0 mm 2 mps 738 mmHg 93%
    23:00 -3°C° 0 mm 2 mps 737 mmHg 92%

    27 March, Wednesday

    Time Temperature Precipitation Wind Pressure Humidity
    00:00 -3°C° 0 mm 2 mps 737 mmHg 91%
    01:00 -3°C° 0 mm 2 mps 737 mmHg 88%
    02:00 -4°C° 0 mm 3 mps 736 mmHg 85%
    03:00 -4°C° 0 mm 3 mps 736 mmHg 81%
    04:00 -4°C° 0.1 mm 4 mps 735 mmHg 80%
    05:00 -4°C° 0.1 mm 4 mps 735 mmHg 80%
    06:00 -4°C° 0.1 mm 5 mps 734 mmHg 79%
    07:00 -4°C° 0.3 mm 5 mps 734 mmHg 81%
    08:00 -4°C° 0.3 mm 6 mps 734 mmHg 83%
    09:00 -4°C° 0.3 mm 6 mps 733 mmHg 85%
    10:00 -3°C° 0.2 mm 6 mps 733 mmHg 80%
    11:00 -2°C° 0.2 mm 5 mps 733 mmHg 75%
    12:00 -1°C° 0.2 mm 5 mps 733 mmHg 70%
    13:00 -1°C° 0.4 mm 5 mps 734 mmHg 67%
    14:00 -1°C° 0.4 mm 5 mps 734 mmHg 65%
    15:00 -2°C° 0.4 mm 6 mps 734 mmHg 62%
    16:00 -2°C° 0.1 mm 5 mps 735 mmHg 64%
    17:00 -2°C° 0.1 mm 5 mps 735 mmHg 66%
    18:00 -2°C° 0.1 mm 5 mps 736 mmHg 68%
    19:00 -4°C° 0 mm 5 mps 737 mmHg 72%
    20:00 -4°C° 0 mm 6 mps 737 mmHg 76%
    21:00 -5°C° 0 mm 6 mps 738 mmHg 80%
    22:00 -5°C° 0.1 mm 6 mps 739 mmHg 82%
    23:00 -5°C° 0.1 mm 6 mps 739 mmHg 84%
    Show more